[[{"header":{"parameterUnit":"m.s-1","parameterCategory":1,"la1":30.2991,"la2":30.254,"lo1":-89.0895,"lo2":-89.0444,"dy":0.0017,"dx":0.0017,"nx":28,"ny":28,"refTime":"2025-07-14T03:00:00:Z","depth":0,"parameterNumber":2,"parameterNumberName":"U-component_of_WINDS"},"data":[0,0,0,0,0,0,0,0,0,0,0,0,0,0,0,0,0,0,0,0,0,0,0,0,0,0,0,0,0,0,0,0,0,0,0,0,0,0,0,0,0,0,0,0,0,0,0,0,0,0,0,0,0,0,0,0,0,0,3.2386,3.2388,0,3.2571,3.2573,3.2575,3.2605,3.2603,3.2602,3.26,3.2794,3.28,3.2807,0,0,0,0,0,0,0,0,0,0,0,0,0,3.2061,3.2066,3.2386,3.2388,3.239,3.2571,3.2573,3.2576,3.2605,3.2603,3.2601,3.2599,3.2791,3.2799,3.2807,0,0,0,0,0,0,0,0,0,0,0,0,0,3.2219,3.2068,3.2385,3.2427,3.2432,3.257,3.2573,3.2577,3.2606,3.2603,3.2601,3.2598,3.2789,3.2799,3.2808,3.292,0,0,3.2839,3.2843,0,0,0,0,0,0,0,0,3.221,3.2231,3.2418,3.2424,3.243,3.2562,3.253,3.2692,3.2606,3.254,3.26,3.2597,3.2719,3.2735,3.2775,3.2929,3.2937,3.284,3.2846,3.285,3.2853,0,0,0,0,0,0,0,3.2199,3.2224,3.2459,3.2421,3.2428,3.2437,3.2457,3.2561,3.2641,3.2545,3.2548,3.2569,3.2722,3.2765,3.278,3.294,3.284,3.2849,3.2855,3.2859,3.3195,3.3197,0,0,0,0,0,0,3.218,3.2214,3.2453,3.2465,3.2312,3.2445,3.2467,3.2523,3.264,3.2655,3.2571,3.257,3.2749,3.2768,3.2787,3.2924,3.285,3.286,3.2865,3.3192,3.3195,3.3198,0,0,0,0,0,0,3.2173,3.2201,3.2446,3.234,3.2372,3.2453,3.2515,3.2527,3.2571,3.2659,3.2674,3.26,3.2748,3.2772,3.2886,3.2931,3.2864,3.2873,3.3188,3.3193,3.3197,3.32,0,0,0,0,0,0,3.2164,3.2199,3.2241,3.2341,3.2377,3.2541,3.2518,3.2533,3.2587,3.2588,3.2691,3.2706,3.2748,3.2871,3.2896,3.2944,3.2881,3.3185,3.319,3.3195,3.3196,3.3204,3.321,0,0,0,0,0,3.2152,3.2235,3.2243,3.2271,3.2432,3.2543,3.2565,3.2611,3.2591,3.2634,3.2692,3.2702,3.2922,3.2882,3.2911,3.2962,3.3182,3.3189,3.3195,3.3193,3.3202,3.321,0,0,0,0,0,0,3.2139,3.2249,3.2259,3.2376,3.245,3.2548,3.2604,3.2619,3.2701,3.2698,3.2753,3.2776,3.2887,3.2936,3.289,3.3076,3.3051,3.3063,3.3039,3.3049,3.3056,3.3041,3.289,0,0,0,0,0,3.2149,3.223,3.2322,3.2417,3.2454,3.2523,3.2573,3.2602,3.2682,3.2713,3.2779,3.2856,3.2943,3.2999,3.3084,3.3204,3.3227,3.3254,3.3261,3.3266,3.3276,3.3343,3.3356,3.322,3.322,3.322,0,0,3.2172,3.2243,3.229,3.2416,3.2477,3.256,3.2549,3.2637,3.27,3.2727,3.2838,3.2889,3.2979,3.3096,3.3151,3.3141,3.3319,3.3274,3.3278,3.3285,3.3351,3.3364,3.3375,3.3224,3.3224,3.3223,0,0,3.2256,3.2318,3.2403,3.2464,3.2556,3.2602,3.2622,3.2718,3.2753,3.2865,3.2887,3.2963,3.3111,3.3175,3.3226,3.3335,3.3348,3.3362,3.3398,3.3463,3.3474,3.3484,3.3522,3.3535,3.3371,3.3371,3.3371,0,3.2273,3.2398,3.2446,3.2533,3.2588,3.2616,3.2704,3.2761,3.2876,3.2914,3.2901,3.3087,3.3151,3.3283,3.3309,3.335,3.3376,3.3349,3.3468,3.3479,3.3488,3.3525,3.354,3.3372,3.3372,3.3372,3.3372,0,3.2415,3.2501,3.256,3.2669,3.2731,3.2818,3.2879,3.2937,3.2961,3.3008,3.3122,3.3198,3.3299,3.3333,3.3358,3.3469,3.346,3.3457,3.3432,3.3501,3.3537,3.3552,3.3374,3.3373,3.3373,3.3373,0,0,3.2494,3.2629,3.2649,3.2699,3.2803,3.2872,3.2961,3.3058,3.3106,3.3185,3.3261,3.3386,3.3384,3.3443,3.3475,3.3532,3.3613,3.3523,3.3526,3.3536,3.374,3.374,3.3756,3.3623,3.3626,3.3628,3.3732,0,3.259,3.2747,3.2793,3.2927,3.3007,3.3036,3.3113,3.3186,3.3233,3.3309,3.3362,3.3449,3.344,3.3475,3.3533,3.3591,3.3655,3.3584,3.3694,3.3698,3.3669,3.3775,3.3776,3.387,3.3746,3.3749,3.3751,0,3.2722,3.2802,3.2943,3.3037,3.3072,3.3141,3.3234,3.3306,3.339,3.342,3.3486,3.3513,3.3608,3.3579,3.3711,3.3662,3.3711,3.3746,3.3751,3.3762,3.3727,3.3788,3.3901,3.3915,3.3773,3.3771,3.377,0,3.2764,3.2908,3.3011,3.3053,3.3165,3.3213,3.3262,3.3343,3.3399,3.3481,3.3517,3.361,3.366,3.3732,3.3784,3.3758,3.3911,3.3887,3.3939,3.3938,3.3969,3.3966,3.4091,3.4002,3.4002,3.4002,3.4001,0,3.2865,3.295,3.3031,3.3094,3.3191,3.3243,3.3338,3.3389,3.3461,3.3535,3.3566,3.3636,3.3701,3.3779,3.3821,3.3924,3.3947,3.3974,3.3984,3.3971,3.3967,3.4002,3.3996,3.4005,3.4005,3.4004,3.4003,0,3.2928,3.2986,3.31,3.3197,3.3223,3.329,3.3373,3.3436,3.3485,3.3578,3.3604,3.368,3.3774,3.3833,3.3953,3.3981,3.4093,3.4102,3.4064,3.4069,3.4117,3.4111,3.4268,3.4291,3.4188,3.4189,3.4189,0,3.2988,3.3054,3.3158,3.3209,3.3258,3.3341,3.3398,3.3453,3.3511,3.3611,3.3662,3.3758,3.3837,3.3986,3.4053,3.4145,3.4155,3.4204,3.4169,3.4153,3.4155,3.4149,3.4156,3.4209,3.4209,3.421,3.4211,0,3.3087,3.3113,3.3193,3.3283,3.335,3.3424,3.3499,3.3539,3.3607,3.3671,3.3767,3.3828,3.395,3.4045,3.4143,3.4195,3.4214,3.4221,3.4238,3.4224,3.4199,3.4212,3.4078,3.4217,3.4216,3.4216,3.4216,3.4215,3.315,3.321,3.3292,3.338,3.3442,3.3511,3.3574,3.3631,3.3711,3.3814,3.3842,3.3942,3.4025,3.4158,3.4212,3.4292,3.4286,3.431,3.4316,3.4321,3.4321,3.4188,3.4311,3.431,3.431,3.431,3.431,0,3.325,3.3305,3.3385,3.3488,3.3558,3.357,3.3653,3.371,3.3797,3.3873,3.395,3.406,3.4153,3.4227,3.4322,3.4371,3.4383,3.4394,3.4391,3.4402,3.4322,3.4297,3.4384,3.4384,3.4384,3.4383,3.4383,3.4383,3.331,3.3412,3.3447,3.358,3.3635,3.3732,3.3778,3.3842,3.3903,3.4024,3.41,3.4148,3.4223,3.4324,3.4409,3.4429,3.4462,3.4471,3.4493,3.4416,3.4408,3.44,3.4377,3.4479,3.4479,3.4566,3.4567,3.4567]},{"header":{"parameterUnit":"m.s-1","parameterCategory":1,"la1":30.2991,"la2":30.254,"lo1":-89.0895,"lo2":-89.0444,"dy":0.0017,"dx":0.0017,"nx":28,"ny":28,"refTime":"2025-07-14T03:00:00:Z","depth":0,"parameterNumber":3,"parameterNumberName":"V-component_of_WINDS"},"data":[0,0,0,0,0,0,0,0,0,0,0,0,0,0,0,0,0,0,0,0,0,0,0,0,0,0,0,0,0,0,0,0,0,0,0,0,0,0,0,0,0,0,0,0,0,0,0,0,0,0,0,0,0,0,0,0,0,0,3.2867,3.2868,0,3.2912,3.2913,3.2913,3.2932,3.2932,3.2932,3.2932,3.2975,3.2976,3.2977,0,0,0,0,0,0,0,0,0,0,0,0,0,3.2791,3.2793,3.2867,3.2868,3.2868,3.2912,3.2913,3.2913,3.2932,3.2932,3.2932,3.2932,3.2974,3.2976,3.2977,0,0,0,0,0,0,0,0,0,0,0,0,0,3.2829,3.2793,3.2867,3.2883,3.2885,3.2912,3.2913,3.2914,3.2932,3.2932,3.2932,3.2931,3.2974,3.2975,3.2977,3.2991,0,0,3.2983,3.2984,0,0,0,0,0,0,0,0,3.2827,3.2832,3.288,3.2882,3.2884,3.2916,3.2902,3.294,3.2932,3.2914,3.2932,3.2931,3.2955,3.2958,3.2967,3.2993,3.2995,3.2983,3.2984,3.2985,3.2985,0,0,0,0,0,0,0,3.2824,3.283,3.2885,3.2881,3.2883,3.2886,3.2891,3.2909,3.2935,3.2915,3.2917,3.2922,3.2956,3.2965,3.2968,3.2996,3.2983,3.2985,3.2986,3.2986,3.3031,3.3031,0,0,0,0,0,0,3.282,3.2828,3.2884,3.2886,3.2855,3.2887,3.2893,3.2906,3.2935,3.2939,3.2922,3.2923,3.2962,3.2966,3.297,3.2985,3.2985,3.2987,3.2988,3.3031,3.3031,3.3031,0,0,0,0,0,0,3.2818,3.2825,3.2882,3.2857,3.2865,3.2889,3.2903,3.2907,3.2916,3.294,3.2944,3.2927,3.2962,3.2967,3.2985,3.2987,3.2987,3.2989,3.3031,3.3031,3.3031,3.3018,0,0,0,0,0,0,3.2816,3.2824,3.2831,3.2858,3.2866,3.2898,3.2903,3.2908,3.292,3.2921,3.2945,3.2949,3.2963,3.2982,3.2987,3.299,3.2991,3.3031,3.3031,3.3031,3.3018,3.3018,3.3017,0,0,0,0,0,3.2813,3.2826,3.2832,3.2838,3.2876,3.2898,3.2903,3.2919,3.292,3.2926,3.294,3.2949,3.2986,3.2984,3.2989,3.2993,3.303,3.3031,3.3031,3.3019,3.3018,3.3017,0,0,0,0,0,0,3.28,3.283,3.2836,3.2859,3.2876,3.2901,3.291,3.2918,3.2935,3.2935,3.2953,3.2958,3.2973,3.2985,3.2982,3.3005,3.3009,3.301,3.2998,3.2997,3.2996,3.2993,3.2992,0,0,0,0,0,3.28,3.2816,3.2841,3.2859,3.2867,3.2887,3.2897,3.2907,3.2925,3.2932,3.2948,3.2964,3.2979,3.2989,3.3004,3.302,3.3024,3.3024,3.3024,3.3023,3.3024,3.3029,3.3029,3.3031,3.3031,3.3031,0,0,3.2799,3.2818,3.2828,3.2856,3.2871,3.2885,3.2893,3.2909,3.292,3.2935,3.2952,3.2964,3.2982,3.2998,3.3006,3.3008,3.3024,3.3023,3.3023,3.3024,3.303,3.3029,3.3029,3.3031,3.3031,3.3031,0,0,3.2806,3.2823,3.2837,3.2851,3.2872,3.2885,3.2888,3.2911,3.2919,3.2937,3.2947,3.2959,3.2986,3.2997,3.3007,3.3012,3.3019,3.3017,3.3014,3.3019,3.3018,3.3018,3.3018,3.3018,3.3017,3.3017,3.3017,0,3.2803,3.2827,3.2844,3.2858,3.2869,3.2883,3.2895,3.2908,3.2932,3.2938,3.2941,3.2971,3.2985,3.3002,3.3003,3.3011,3.3013,3.3014,3.3017,3.3017,3.3018,3.3017,3.3017,3.3017,3.3017,3.3017,3.3017,0,3.282,3.2836,3.2845,3.2868,3.288,3.2894,3.291,3.2919,3.2927,3.2938,3.2954,3.297,3.2987,3.2992,3.3001,3.3009,3.301,3.3014,3.3018,3.3016,3.3016,3.3017,3.3016,3.3016,3.3016,3.3017,0,0,3.2823,3.2852,3.2854,3.2863,3.2886,3.2897,3.291,3.2927,3.2933,3.2949,3.2958,3.2978,3.2981,3.2992,3.3001,3.3006,3.3005,3.3009,3.301,3.3006,3.3012,3.3008,3.3008,3.301,3.301,3.301,3.301,0,3.2831,3.2855,3.2868,3.2886,3.2899,3.291,3.292,3.2934,3.2943,3.2954,3.2965,3.2978,3.2983,3.2988,3.2993,3.3005,3.3007,3.3005,3.3017,3.3017,3.3011,3.3008,3.3004,3.3004,3.301,3.301,3.3011,0,3.2845,3.2859,3.2878,3.2895,3.2901,3.291,3.2924,3.2936,3.2949,3.2956,3.2965,3.2974,3.2985,3.2987,3.3,3.2999,3.3004,3.3009,3.301,3.3011,3.3013,3.3008,3.3004,3.3003,3.3011,3.3011,3.3011,0,3.2841,3.2865,3.2879,3.2886,3.2907,3.2913,3.2921,3.2935,3.2943,3.2955,3.296,3.2973,3.2979,3.2988,3.2999,3.3,3.301,3.3014,3.3013,3.3013,3.3015,3.3015,3.3011,3.302,3.302,3.302,3.302,0,3.2849,3.2859,3.2877,3.2886,3.2896,3.2909,3.2919,3.2929,3.294,3.2948,3.2958,3.2966,3.298,3.2988,3.2996,3.3004,3.3008,3.3012,3.3013,3.301,3.3009,3.3014,3.3013,3.302,3.302,3.302,3.302,0,3.2848,3.286,3.2875,3.2892,3.2897,3.2904,3.2918,3.2925,3.2934,3.2944,3.2947,3.2961,3.2971,3.2982,3.2996,3.3001,3.3008,3.3011,3.3003,3.3004,3.3003,3.3002,3.3001,3.3,3.3011,3.301,3.301,0,3.2851,3.2859,3.2876,3.2883,3.2891,3.2901,3.2909,3.2921,3.2928,3.2941,3.2946,3.2956,3.2966,3.298,3.2991,3.3,3.3003,3.3002,3.3005,3.3,3.3001,3.3,3.3,3.3001,3.3001,3.3001,3.3001,0,3.2855,3.286,3.2871,3.2882,3.2891,3.2901,3.2911,3.2915,3.2928,3.2935,3.2945,3.2952,3.2965,3.2974,3.2984,3.2991,3.2997,3.2999,3.3,3.2996,3.299,3.2991,3.3,3.3,3.3,3.3,3.3,3.3,3.2855,3.2861,3.2873,3.2884,3.2892,3.29,3.2907,3.2915,3.2924,3.2936,3.2942,3.2951,3.296,3.2975,3.2981,3.2987,3.2989,3.299,3.299,3.299,3.2988,3.299,3.2989,3.2989,3.2989,3.2989,3.2989,0,3.2858,3.2865,3.2874,3.2887,3.2894,3.2899,3.291,3.2915,3.2923,3.2932,3.294,3.2949,3.2957,3.2967,3.2975,3.2978,3.2981,3.298,3.2979,3.298,3.2986,3.2985,3.2977,3.2977,3.2977,3.2977,3.2977,3.2977,3.286,3.2869,3.2875,3.2887,3.2895,3.2904,3.2908,3.2915,3.2922,3.2932,3.2939,3.2945,3.2953,3.2961,3.2968,3.297,3.2972,3.297,3.2973,3.2979,3.298,3.2981,3.2979,3.2971,3.2971,3.2966,3.2966,3.2966]}]]